{"data":{"norad_id":49459,"epoch":"2026-09-19T19:01:03.133632Z","epoch_age_seconds":105790,"freshness":"FRESH","line1":"1 49459U 21104BD  26262.79239738  .00001759  00000+0  61304-4 0  9994","line2":"2 49459  53.1605  55.7674 0001042  80.0117 280.1003 15.35400120268248","mean_motion":15.3540012,"eccentricity":0.0001042,"inclination_deg":53.1605,"raan_deg":55.7674,"arg_perigee_deg":80.0117,"mean_anomaly_deg":280.1003,"bstar":6.1304e-5,"rev_number":26824,"period_min":93.786628074511,"perigee_km":459.01978048325,"apogee_km":460.44479244255,"semimajor_km":6837.8692864629,"source":"CELESTRAK","updated_at":"2026-09-20T09:00:39.402509Z"}}